Home   Weather   Greater Sudbury   Past weeks
Flag for Canada

Past Weather in Greater Sudbury, Ontario, Canada — Yesterday and Last 2 Weeks

Now
5 °F

Sunny.


Feels Like: -7 °F
Forecast: 16 / -7 °F
Wind: 7 mph from Northwest

Location: Sudbury

Current Time: Jan 20, 2020 at 12:55:46 pm

Latest Report: Jan 20, 2020 at 12:00 pm


Visibility: 20 mi

Pressure: 30.45 "Hg

Humidity: 66%

Dew Point: -4 °F

Location of Greater SudburyLocation

Past Weather in Greater Sudbury — Graph

°F

Greater Sudbury Temperature Yesterday

Maximum temperature yesterday: 14 °F (at 2:00 pm)
Minimum temperature yesterday: -2 °F (at 11:00 pm)
Average temperature yesterday: 7 °F

High & Low Weather Summary for the Past Weeks

 TemperatureHumidityPressure
High37 °F (Jan 10, 6:00 am)100% (Jan 6, 12:00 am)30.91 "Hg (Jan 6, 12:00 am)
Low-13 °F (Jan 17, 7:00 am)55% (Jan 17, 2:00 pm)29.59 "Hg (Jan 18, 9:43 pm)
Average13 °F83%30.13 "Hg
* Reported Jan 5 11:00 am — Jan 20 11:00 am, Greater Sudbury. Weather by CustomWeather, © 2020

Note: Actual official high and low records may vary slightly from our data, if they occured in-between our weather recording intervals... More about our weather records

Greater Sudbury Weather History for the Previous 24 Hours

Scroll right to see more
 ConditionsComfort  
Time TempWeatherWind HumidityBarometerVisibility
11:00 am
Mon, Jan 20
1 °FSunny.6 mph71%30.47 "Hg20 mi
10:00 am-2 °FSunny.7 mph77%30.46 "Hg20 mi
9:00 am-4 °FSunny.6 mph77%30.45 "Hg20 mi
8:00 am-6 °FSunny.6 mph77%30.43 "Hg20 mi
7:00 am-8 °FClear.6 mph84%30.42 "Hg15 mi
6:00 am-6 °FClear.5 mph84%30.41 "Hg15 mi
5:00 am-6 °FClear.5 mph84%30.39 "Hg15 mi
4:00 am-4 °FClear.8 mph77%30.37 "Hg15 mi
3:00 am-4 °FClear.8 mph84%30.37 "Hg15 mi
2:00 am-4 °FClear.3 mph84%30.39 "Hg15 mi
1:00 am-4 °FClear.6 mph84%30.38 "Hg15 mi
12:00 am-2 °FClear.6 mph84%30.38 "Hg15 mi
11:00 pm
Sun, Jan 19
-2 °FClear.6 mph84%30.38 "Hg15 mi
10:00 pm1 °FClear.9 mph71%30.36 "Hg15 mi
9:00 pm3 °FClear.12 mph72%30.34 "Hg15 mi
8:00 pm5 °FClear.13 mph72%30.32 "Hg15 mi
7:00 pm7 °FClear.10 mph72%30.29 "Hg15 mi
6:00 pm7 °FPassing clouds.6 mph72%30.26 "Hg15 mi
5:00 pm10 °FPassing clouds.8 mph67%30.21 "Hg20 mi
4:00 pm14 °FPassing clouds.14 mph57%30.16 "Hg20 mi
3:00 pm14 °FScattered clouds.13 mph57%30.13 "Hg20 mi
2:00 pm14 °FScattered clouds.16 mph57%30.09 "Hg20 mi
1:00 pm12 °FLow level haze.20 mph62%30.06 "Hg20 mi
12:00 pm12 °FScattered clouds.18 mph67%30.04 "Hg20 mi
Weather by CustomWeather, © 2020

See weather overview

Advertising